Location: ??
(35.5653°N, 139.6194°E)
Time: 04:10:07
(UTC+00:00)

IRIDIUM 103 - Pass Details

Date: 13 December 2025
Orbit: 776 x 779 km, 86.4° (Epoch: 21 January)

Event Time Altitude Azimuth Distance (km) Brightness Sun altitude
Rises 20:21:51 0° 183° (S) 3,246 7.7 -16.0°
Reaches altitude 10° 20:24:11 10° 184° (S) 2,323 7.0 -15.5°
Maximum altitude 20:29:23 80° 271° (W) 794 4.2 -14.5°
Drops below altitude 10° 20:34:38 10° 360° (N) 2,338 6.6 -13.5°
Sets 20:37:00 0° 1° (N) 3,270 7.4 -13.1°
